STARLINK-32049 (60199 NORAD) Tracking and Keplerian Element Data

This shows tracking and keplerian element data for the satellite.

Feedback or suggestion? Click here.




ElementValue
Catalog60199
NameSTARLINK-32049
Epoch Orbit1682
Epoch Day286.03668431
Epoch Year2024
RAAN192.5927
Inclination53.1565
Eccentricity9.69E-05
Argument of Perigee63.0302
Mean Anonmoly297.0802
Mean Motion15.39552478
Decay Rate0.00017919
L11 60199U 24124S 24286.03668431 .00017919 00000+0 45791-3 0 9996
L22 60199 53.1565 192.5927 0000969 63.0302 297.0802 15.39552478 16829



Live tracking and technical data element details for STARLINK-32049 (NORAD 60199). STARLINK-32049 can be tracked NOW for your location showing map with azimuth and elevation plus other details from your city location.







IsCatalogInMostPopularTable: catalog: 60199, numindb: 12
Update: records affected: 1



GetName: 60199 STARLINK-32049

Hit Count: updated at: Thu, 23 Jan 2025 17:14:07 GMT